Weather History for Brunswick, GA

Change the Weather History Date:

Monday, November 12, 2012

  Actual Average Record
Temperature  
Mean Temperature 68 °F -  
Max Temperature 77 °F 73 °F 84 °F (1940)
Min Temperature 59 °F 51 °F 30 °F (2011)
Cooling Degree Days 3    
Growing Degree Days 18 (Base 50)    
Moisture  
Dew Point 65 °F    
Average Humidity 92    
Maximum Humidity 100    
Minimum Humidity 74    
Precipitation  
Precipitation 0.00 in - - ()
Sea Level Pressure  
Sea Level Pressure 30.27 in    
Wind  
Wind Speed 2 mph (SE)    
Max Wind Speed 18 mph    
Max Gust Speed 25 mph    
Visibility 7 miles    
Events      
Averages and records for this station are not official NWS values.
T = Trace of Precipitation, MM = Missing Value Source: NWS Daily Summary

Daily Weather History Graph

Daily Weather History Graph

Search for Another Location

Airport:

Trip Planner

Search our weather history database for the weather conditions in past years. The results will help you decide how hot, cold, wet, or windy it might be!

Date:

Astronomy

Nov. 12, 2012 Rise Set
Actual Time 6:51 AM EST 5:28 PM EST
Civil Twilight 6:25 AM EST 5:54 PM EST
Nautical Twilight 5:56 AM EST 6:23 PM EST
Astronomical Twilight 5:27 AM EST 6:52 PM EST
Moon 5:18 AM EST (11/12) 4:31 PM EST (11/12)
Length of Visible Light 11h 28m
Length of Day
10h 37m
Waning Crescent, 2% of the Moon is Illuminated
Nov 12
Waning Crescent
Nov 13
New
Nov 20
First Quarter
Nov 28
Full
Dec 6
Last Quarter

Hourly Weather History & Observations

Time (EST) Temp. Dew Point Humidity Pressure Visibility Wind Dir Wind Speed Gust Speed Precip Events Conditions
12:15 AM 60.8 °F 60.8 °F 100% 30.31 in 1.2 mi Calm Calm - N/A   Unknown
12:35 AM 60.8 °F 59.0 °F 94% 30.31 in 1.2 mi Calm Calm - N/A   Unknown
12:55 AM 60.8 °F 60.8 °F 100% 30.31 in 7.0 mi Calm Calm - N/A   Mostly Cloudy
1:15 AM 60.8 °F 60.8 °F 100% 30.31 in 3.0 mi Calm Calm - N/A   Mostly Cloudy
1:35 AM 62.6 °F 60.8 °F 94% 30.30 in 10.0 mi Calm Calm - N/A   Scattered Clouds
1:55 AM 60.8 °F 60.8 °F 100% 30.30 in 1.8 mi Calm Calm - N/A   Unknown
2:15 AM 59.0 °F 59.0 °F 100% 30.30 in 0.2 mi Calm Calm - N/A   Unknown
2:35 AM 60.8 °F 59.0 °F 94% 30.30 in 0.5 mi Calm Calm - N/A   Overcast
2:55 AM 60.8 °F 60.8 °F 100% 30.30 in 2.0 mi Calm Calm - N/A   Overcast
3:15 AM 60.8 °F 60.8 °F 100% 30.29 in 7.0 mi Calm Calm - N/A   Mostly Cloudy
3:35 AM 59.0 °F 59.0 °F 100% 30.28 in 7.0 mi Calm Calm - N/A   Scattered Clouds
3:55 AM 59.0 °F 59.0 °F 100% 30.28 in 0.5 mi Calm Calm - N/A   Unknown
4:15 AM 60.8 °F 60.8 °F 100% 30.28 in 0.8 mi Calm Calm - N/A   Mostly Cloudy
4:35 AM 60.8 °F 60.8 °F 100% 30.27 in 0.8 mi Calm Calm - N/A   Mostly Cloudy
4:55 AM 60.8 °F 60.8 °F 100% 30.27 in 1.5 mi Calm Calm - N/A   Mostly Cloudy
5:15 AM 60.8 °F 60.8 °F 100% 30.27 in 10.0 mi Calm Calm - N/A   Overcast
5:35 AM 60.8 °F 60.8 °F 100% 30.27 in 10.0 mi Calm Calm - N/A   Overcast
5:55 AM 62.6 °F 62.6 °F 100% 30.27 in 7.0 mi NE 3.5 mph - N/A   Mostly Cloudy
6:15 AM 64.4 °F 62.6 °F 94% 30.27 in 10.0 mi Calm Calm - N/A   Mostly Cloudy
6:35 AM 64.4 °F 62.6 °F 94% 30.27 in 10.0 mi Calm Calm - N/A   Scattered Clouds
6:55 AM 64.4 °F 64.4 °F 100% 30.27 in 7.0 mi Calm Calm - N/A   Mostly Cloudy
7:15 AM 64.4 °F 62.6 °F 94% 30.28 in 7.0 mi Calm Calm - N/A   Overcast
7:35 AM 68.0 °F 68.0 °F 100% 30.28 in 10.0 mi Calm Calm - N/A   Scattered Clouds
7:55 AM 71.6 °F 69.8 °F 94% 30.29 in 10.0 mi ESE 5.8 mph - N/A   Clear
8:15 AM 75.2 °F 68.0 °F 78% 30.29 in 10.0 mi ESE 5.8 mph - N/A   Clear
8:35 AM 73.4 °F 68.0 °F 83% 30.30 in 10.0 mi ESE 5.8 mph - N/A   Mostly Cloudy
8:55 AM 75.2 °F 68.0 °F 78% 30.30 in 10.0 mi ESE 3.5 mph - N/A   Overcast
9:15 AM 77.0 °F 68.0 °F 74% 30.30 in 10.0 mi ESE 6.9 mph - N/A   Overcast
9:35 AM 77.0 °F 68.0 °F 74% 30.31 in 10.0 mi SSE 18.4 mph 25.3 mph N/A   Overcast
9:55 AM 71.6 °F 69.8 °F 94% 30.32 in 5.0 mi South 8.1 mph - N/A   Overcast
10:15 AM 71.6 °F 69.8 °F 94% 30.32 in 10.0 mi South 8.1 mph - N/A   Overcast
10:35 AM 71.6 °F 68.0 °F 88% 30.32 in 10.0 mi SE 8.1 mph - N/A   Overcast
10:55 AM 71.6 °F 68.0 °F 88% 30.32 in 10.0 mi South 4.6 mph - N/A   Overcast
11:15 AM 71.6 °F 68.0 °F 88% 30.32 in 5.0 mi SSE 5.8 mph - N/A   Overcast
11:35 AM 71.6 °F 68.0 °F 88% 30.31 in 5.0 mi ESE 9.2 mph - N/A   Overcast
11:55 AM 71.6 °F 68.0 °F 88% 30.30 in 10.0 mi SE 3.5 mph - N/A   Overcast
12:15 PM 71.6 °F 68.0 °F 88% 30.30 in 10.0 mi South 8.1 mph - N/A   Overcast
12:35 PM 71.6 °F 68.0 °F 88% 30.28 in 10.0 mi East 4.6 mph - N/A   Overcast
12:55 PM 73.4 °F 68.0 °F 83% 30.27 in 10.0 mi ESE 4.6 mph - N/A   Overcast
1:15 PM 73.4 °F 68.0 °F 83% 30.26 in 10.0 mi East 4.6 mph - N/A   Overcast
1:35 PM 71.6 °F 69.8 °F 94% 30.26 in 10.0 mi Calm Calm - N/A   Overcast
1:55 PM 73.4 °F 69.8 °F 88% 30.25 in 10.0 mi Calm Calm - N/A   Overcast
2:15 PM 73.4 °F 69.8 °F 88% 30.25 in 10.0 mi Calm Calm - N/A   Overcast
2:35 PM 75.2 °F 69.8 °F 83% 30.25 in 10.0 mi SSE 6.9 mph - N/A   Overcast
2:55 PM 75.2 °F 69.8 °F 83% 30.24 in 10.0 mi SE 5.8 mph - N/A   Overcast
3:15 PM 73.4 °F 68.0 °F 83% 30.24 in 10.0 mi ESE 9.2 mph - N/A   Overcast
3:35 PM 73.4 °F 66.2 °F 78% 30.24 in 10.0 mi ESE 6.9 mph - N/A   Overcast
3:55 PM 71.6 °F 66.2 °F 83% 30.24 in 10.0 mi ESE 3.5 mph - N/A   Overcast
4:15 PM 71.6 °F 66.2 °F 83% 30.24 in 10.0 mi ESE 3.5 mph - N/A   Overcast
4:35 PM 71.6 °F 66.2 °F 83% 30.24 in 7.0 mi SE 5.8 mph - N/A   Overcast
4:55 PM 69.8 °F 66.2 °F 88% 30.23 in 7.0 mi ESE 6.9 mph - N/A   Overcast
5:15 PM 69.8 °F 66.2 °F 88% 30.23 in 10.0 mi East 3.5 mph - N/A   Overcast
5:35 PM 69.8 °F 68.0 °F 94% 30.23 in 10.0 mi Calm Calm - N/A   Overcast
5:55 PM 69.8 °F 66.2 °F 88% 30.23 in 10.0 mi Calm Calm - N/A   Overcast
6:15 PM 68.0 °F 66.2 °F 94% 30.23 in 10.0 mi Calm Calm - N/A   Mostly Cloudy
6:35 PM 68.0 °F 66.2 °F 94% 30.23 in 7.0 mi Calm Calm - N/A   Overcast
6:55 PM 68.0 °F 66.2 °F 94% 30.24 in 10.0 mi Calm Calm - N/A   Overcast
7:15 PM 68.0 °F 68.0 °F 100% 30.24 in 10.0 mi Calm Calm - N/A   Overcast
7:35 PM 68.0 °F 66.2 °F 94% 30.23 in 10.0 mi Calm Calm - N/A   Overcast
7:55 PM 68.0 °F 66.2 °F 94% 30.24 in 10.0 mi Calm Calm - N/A   Overcast
8:15 PM 68.0 °F 66.2 °F 94% 30.24 in 7.0 mi Calm Calm - N/A   Overcast
8:35 PM 68.0 °F 66.2 °F 94% 30.24 in 7.0 mi Calm Calm - N/A   Overcast
8:55 PM 68.0 °F 66.2 °F 94% 30.24 in 7.0 mi Calm Calm - N/A   Overcast
9:15 PM 68.0 °F 68.0 °F 100% 30.23 in 7.0 mi Calm Calm - N/A   Overcast
9:35 PM 66.2 °F 64.4 °F 94% 30.23 in 10.0 mi East 3.5 mph - N/A   Mostly Cloudy
9:55 PM 66.2 °F 64.4 °F 94% 30.23 in 10.0 mi Calm Calm - N/A   Scattered Clouds
10:15 PM 66.2 °F 64.4 °F 94% 30.23 in 2.0 mi Calm Calm - N/A   Clear
10:35 PM 66.2 °F 64.4 °F 94% 30.23 in 0.5 mi Calm Calm - N/A   Unknown
10:55 PM 64.4 °F 64.4 °F 100% 30.23 in 0.2 mi Calm Calm - N/A   Unknown
11:15 PM 64.4 °F 62.6 °F 94% 30.22 in 0.5 mi Calm Calm - N/A   Unknown
11:35 PM 64.4 °F 62.6 °F 94% 30.21 in 0.2 mi Calm Calm - N/A   Mostly Cloudy
11:55 PM 64.4 °F 62.6 °F 94% 30.21 in 0.5 mi Calm Calm - N/A   Mostly Cloudy